Starlink 31242

operational
NORAD ID: 58864 Int'l Des: 2024-019 Owner: SPXS Country: US Constellation: starlink
LEOCIRCULAR

Über Starlink 31242

Beschreibung wird geladen...

Live-Position

3D-Globus wird geladen...

Nächste Überflüge

Höhenverlauf

Altitude vs Time

uPlot chart will show altitude changes over time

Zweizeiliger Elementsatz

1 58864U 24019M 25306.12887477 .00015453 00000-0 56988-3 0 9994
2 58864 42.9990 249.3230 0000520 224.8665 135.2144 15.27580207 99576
Epoch: 2. Nov. 2025 • Age: 45 hours

Aktueller Status

Höhe 482.0 km
Geschwindigkeit 7.63 km/s
Subsatellitenpunkt 5.36°N, 12.85°E
Startdatum 29. Jan. 2024
Alter 1.7 years
Typ internet

Technische Details

Klassifizierung Payload
Masse 730.00 kg
Trockenmasse 700.00 kg
Gesamtmasse 730.00 kg
Länge 0.30 m
Durchmesser 4.10 m
Spannweite 29.00 m
Form Box + pan
Hersteller SPXS
Bus-Typ Starlink V2M
Phasenstatus In Orbit
Besitzer/Staat SPXS/US

Große Konstellationen

Loading constellations...